Wind_Speed
19 18 18 19 19 20 21 19 18 18 20 22 23 23 23 24 28 31 32 33 33 33 31 29 26 25 24 24 24 23 23 24 22 22 23 23 25 26 26 25 25 25 25 25
16 16 17 17 18 18 19 19 18 18 20 22 21 21 21 22 25 27 30 32 32 33 32 32 31 29 27 25 25 25 26 26 24 23 23 25 26 28 28 27 27 27 27 28
14 15 16 16 17 18 18 18 18 18 20 21 20 20 20 20 22 23 26 29 31 32 33 33 32 31 29 28 27 26 27 28 26 26 27 28 29 29 29 29 29 28 29 30
13 14 15 16 17 18 17 17 18 18 19 20 20 19 17 18 19 21 23 25 28 30 32 33 32 31 30 30 29 28 28 29 28 29 30 31 31 30 31 32 32 31 30 30
12 14 15 16 16 17 16 17 18 18 19 20 19 18 16 17 18 19 21 23 25 26 29 30 30 29 29 29 29 28 28 28 29 30 31 31 30 30 32 31 32 32 32 31
13 14 16 16 16 17 17 17 18 18 18 18 17 17 16 16 17 18 19 21 22 23 25 26 27 28 28 28 29 28 28 28 29 29 30 30 30 30 31 32 33 32 33 32
14 15 17 16 15 16 17 17 17 17 17 17 17 18 17 16 15 17 18 19 20 21 23 25 26 27 26 26 28 28 28 28 29 29 27 27 26 27 28 28 30 31 31 31
15 14 15 15 14 15 15 16 16 16 15 15 16 17 17 17 16 17 18 19 20 21 22 24 25 26 27 27 27 28 28 28 28 28 27 25 24 24 25 25 25 26 26 27
16 13 13 12 12 13 13 14 14 15 15 16 16 16 17 16 17 17 18 19 20 21 21 23 24 25 26 26 27 26 27 27 27 26 24 24 23 23 23 23 24 24 24 24
14 12 10 9 10 11 12 12 12 13 14 15 16 15 15 16 16 17 18 19 19 20 21 22 24 25 26 25 25 25 26 26 25 25 25 25 24 23 24 23 23 23 23 23
12 10 8 8 8 9 11 12 12 12 13 14 14 14 14 15 16 16 17 18 18 18 19 22 23 24 25 25 25 24 25 25 25 25 25 25 25 24 24 24 24 24 25 24
10 9 7 6 6 8 9 12 13 12 11 12 13 13 14 15 14 14 14 15 16 17 18 20 21 22 23 24 24 25 25 25 25 25 25 25 25 25 25 25 25 25 25 26
9 7 5 5 5 6 8 10 11 11 12 13 13 13 13 14 13 13 13 12 14 15 17 18 19 21 23 24 25 26 26 26 26 26 26 25 25 25 25 25 26 26 27 28
7 6 5 4 5 6 7 9 10 11 13 13 13 13 13 13 14 14 15 14 14 14 17 18 20 21 23 24 25 25 25 25 25 26 26 25 25 26 26 26 27 28 29 30
6 5 4 4 5 6 7 8 10 11 12 13 13 13 13 13 14 15 15 16 16 16 17 18 20 22 23 24 25 25 26 26 26 26 26 26 26 26 27 27 27 28 29 30
5 4 4 4 5 6 7 8 9 10 11 12 12 13 12 13 14 15 15 16 17 17 18 19 19 21 22 23 24 25 26 26 27 26 26 26 26 26 26 26 26 27 28 29
3 3 4 4 5 6 7 8 9 10 11 12 13 13 13 13 13 14 15 15 16 16 17 18 18 19 20 21 23 24 25 25 25 25 26 25 25 25 26 26 26 27 28 28
2 2 3 4 5 6 7 9 9 10 11 12 12 13 14 14 14 14 14 14 14 15 17 17 18 19 19 20 21 22 23 23 23 24 24 24 24 24 25 25 25 26 26 26
3 2 3 4 6 6 8 8 9 10 11 11 12 12 12 13 13 12 12 12 13 14 15 16 17 17 18 19 19 20 20 20 21 21 21 21 22 22 22 23 23 23 23 23
2 2 3 5 6 7 8 9 10 11 11 11 11 11 11 11 10 10 10 11 11 12 13 14 15 15 16 16 17 18 18 18 18 18 19 19 19 20 20 20 21 20 20 21
2 2 3 5 7 8 10 11 12 12 12 12 11 11 10 9 9 9 9 10 11 12 12 12 13 13 13 14 15 16 16 16 16 16 16 17 17 18 18 19 19 19 18 18
1 1 3 6 8 9 11 12 13 13 13 12 11 10 9 9 9 9 9 9 10 11 12 13 13 13 13 13 14 14 15 15 16 16 16 17 17 17 17 17 17 16 16 16
2 2 4 7 9 10 12 13 14 14 13 12 11 10 9 9 9 9 8 9 9 10 11 11 12 12 12 13 14 14 14 14 15 15 16 16 16 16 15 15 14 14 13 13
3 4 5 7 9 11 13 14 14 14 14 13 12 11 10 10 10 9 9 9 9 10 10 11 11 11 12 12 13 13 13 13 14 14 14 14 14 14 13 13 12 12 11 11
3 4 6 8 10 12 13 14 14 14 14 13 12 11 11 10 10 10 9 9 9 9 9 10 10 11 11 11 11 11 12 12 12 12 13 12 12 12 11 10 10 10 9 9
4 4 6 8 10 12 13 14 15 15 15 14 13 12 11 11 11 10 10 9 8 8 9 9 9 9 10 10 10 11 11 11 11 12 12 11 11 11 10 9 9 8 7 7
Wind_Direction
299 294 289 286 281 276 271 264 257 249 247 249 250 252 248 243 238 235 233 231 230 228 225 225 228 231 234 240 244 246 241 239 239 240 240 239 236 233 230 233 234 235 238 241
300 295 291 287 283 278 272 263 254 243 243 247 249 251 250 246 240 236 234 231 229 228 226 228 232 236 239 242 246 248 248 247 245 245 247 246 239 233 231 233 235 237 241 243
304 298 294 288 282 279 273 262 252 244 241 245 247 247 244 242 238 235 233 232 230 229 229 231 234 238 240 242 246 249 251 251 255 254 255 253 247 241 235 234 234 238 242 246
305 300 294 288 283 281 271 258 249 245 242 240 244 246 242 238 235 233 231 230 227 228 229 231 233 235 238 242 245 249 253 254 259 264 263 258 253 246 241 237 237 239 243 246
306 300 294 287 281 275 266 256 250 246 244 241 242 246 242 235 231 229 228 227 226 227 228 229 231 234 238 241 245 249 252 256 261 266 263 261 251 244 242 242 240 241 244 246
305 299 293 287 277 269 261 255 252 248 247 246 243 246 245 237 234 232 227 226 226 226 226 227 230 234 238 241 245 249 252 259 265 268 266 262 251 245 242 240 242 245 248 250
306 300 293 286 274 261 255 252 251 250 250 250 247 248 248 243 243 239 233 229 229 228 227 228 231 235 239 243 246 250 254 258 264 267 268 264 255 250 247 247 246 248 251 254
312 305 297 288 276 262 253 250 250 248 248 249 250 252 251 248 248 246 241 237 235 233 230 230 233 236 240 244 246 249 253 258 263 267 267 266 269 265 258 257 258 257 259 261
312 306 297 288 273 257 252 247 251 248 250 250 253 257 255 254 252 251 250 248 246 244 240 239 239 240 241 244 247 251 253 257 261 267 270 273 274 274 272 268 266 267 270 269
315 308 296 285 269 253 246 242 245 247 248 251 256 258 260 260 259 253 256 257 254 251 246 244 244 244 245 247 249 250 252 257 263 265 269 273 274 274 274 275 274 274 272 274
315 310 298 281 263 249 247 242 245 254 259 263 263 263 265 273 275 266 263 258 252 250 246 246 246 246 247 248 251 254 256 259 264 267 269 270 273 273 272 274 275 276 277 278
312 308 300 283 269 258 251 245 247 254 264 268 270 273 269 274 279 276 273 260 252 252 249 249 248 246 248 250 252 254 258 262 266 269 270 270 272 273 274 276 278 279 279 279
304 302 295 283 275 272 257 250 250 258 266 270 274 277 274 276 280 281 279 270 260 256 255 254 251 249 250 252 254 257 259 263 267 270 272 271 273 274 274 277 278 280 280 281
301 303 298 296 289 281 266 260 258 263 270 275 275 279 279 280 278 279 279 278 276 265 261 258 254 255 254 254 256 258 259 263 267 269 270 271 272 274 275 277 277 278 279 280
302 300 304 300 298 290 278 273 271 272 276 278 278 278 279 280 278 279 280 278 278 268 263 260 257 259 258 257 257 258 261 263 266 268 269 271 273 274 275 276 277 278 279 281
300 301 305 305 301 293 289 287 281 281 283 285 284 280 281 282 282 282 281 278 275 265 261 260 260 259 260 260 259 259 261 263 265 268 269 271 272 273 274 275 276 279 280 282
291 313 321 311 309 305 293 297 293 292 296 295 290 287 287 285 282 281 280 275 270 267 265 263 262 261 260 259 259 260 260 262 264 266 268 269 270 272 273 274 277 279 281 284
278 312 326 327 317 311 311 309 304 302 304 305 299 295 294 291 285 284 281 272 269 267 265 265 266 265 261 258 259 259 260 262 264 266 268 269 270 272 274 275 277 280 283 285
267 308 333 339 329 325 323 322 318 315 312 313 309 306 303 296 290 285 279 268 265 266 266 266 265 266 264 260 260 260 262 264 266 268 270 270 272 273 275 277 279 282 285 287
253 297 340 350 344 340 339 336 333 330 327 324 319 315 313 308 300 290 282 276 269 267 268 267 265 266 266 266 264 263 264 265 267 269 270 270 272 273 276 278 280 283 285 288
238 308 344 354 355 357 355 351 345 342 341 337 332 328 323 318 310 301 290 280 274 269 269 268 268 269 269 271 270 268 267 267 268 269 271 272 274 275 276 278 281 284 286 289
197 3 4 1 4 4 1 359 355 352 349 348 344 340 331 323 313 304 296 285 282 280 278 276 275 277 275 274 274 273 273 273 272 271 272 273 275 277 278 280 281 283 285 290
126 51 26 18 13 9 6 3 1 358 357 356 354 350 342 333 324 316 307 299 293 289 287 286 283 281 279 277 276 276 277 276 275 274 274 275 276 277 278 279 280 282 286 291
115 58 33 23 17 12 8 6 4 3 2 2 360 356 351 345 342 333 320 308 301 296 295 293 290 286 284 284 282 280 279 280 279 278 278 278 278 278 277 277 278 281 286 291
119 63 36 26 20 15 13 10 9 8 6 4 2 1 357 353 349 341 330 319 311 306 302 298 295 291 288 287 286 284 283 283 282 280 279 280 279 277 275 274 275 280 284 288
125 70 40 28 21 19 17 15 14 13 11 9 8 6 3 358 353 348 342 335 326 318 311 306 302 299 295 291 289 287 286 285 283 282 281 279 277 274 272 271 272 275 280 284
Height
5771 5770 5768 5766 5765 5765 5765 5765 5766 5766 5765 5766 5767 5769 5771 5773 5776 5779 5783 5788 5793 5799 5804 5809 5813 5816 5818 5820 5821 5822 5823 5825 5826 5828 5828 5830 5831 5832 5834 5836 5838 5839 5841 5842
5767 5765 5764 5763 5762 5761 5761 5761 5762 5762 5762 5763 5764 5766 5767 5769 5771 5774 5778 5782 5787 5792 5798 5803 5807 5810 5813 5815 5817 5818 5819 5820 5821 5822 5823 5824 5824 5825 5827 5830 5832 5834 5835 5836
5764 5763 5760 5759 5759 5758 5758 5758 5758 5759 5759 5760 5761 5763 5764 5765 5767 5770 5774 5777 5782 5786 5791 5796 5800 5804 5807 5809 5811 5813 5814 5815 5816 5816 5816 5817 5818 5819 5822 5824 5825 5827 5829 5830
5760 5759 5757 5756 5755 5755 5755 5755 5755 5755 5756 5757 5759 5760 5761 5762 5764 5767 5770 5773 5776 5781 5785 5789 5794 5798 5801 5803 5806 5808 5809 5809 5810 5810 5811 5810 5810 5813 5816 5817 5819 5821 5822 5823
5757 5755 5754 5753 5752 5751 5751 5751 5752 5752 5753 5754 5755 5757 5759 5759 5762 5764 5766 5769 5772 5775 5779 5784 5788 5792 5795 5797 5800 5802 5803 5804 5805 5804 5804 5802 5802 5804 5807 5810 5812 5814 5816 5817
5754 5752 5750 5749 5748 5748 5748 5748 5749 5750 5750 5752 5753 5754 5756 5757 5759 5760 5763 5765 5768 5771 5774 5778 5782 5785 5788 5791 5793 5795 5797 5798 5799 5799 5798 5798 5797 5797 5800 5801 5805 5807 5808 5809
5751 5748 5746 5744 5744 5744 5745 5746 5747 5747 5748 5749 5750 5751 5753 5754 5756 5758 5760 5762 5764 5767 5770 5773 5776 5779 5782 5785 5787 5789 5790 5792 5792 5793 5793 5792 5791 5791 5793 5795 5797 5800 5801 5802
5747 5745 5743 5741 5740 5741 5741 5743 5745 5745 5746 5747 5747 5748 5751 5751 5753 5754 5756 5758 5761 5763 5765 5767 5770 5773 5776 5779 5781 5783 5784 5785 5786 5786 5786 5786 5787 5786 5788 5789 5791 5793 5795 5796
5743 5742 5740 5738 5738 5738 5739 5740 5742 5743 5743 5744 5745 5746 5747 5748 5750 5751 5752 5754 5756 5758 5760 5763 5765 5767 5770 5772 5774 5776 5778 5779 5779 5780 5780 5781 5781 5782 5783 5784 5785 5787 5788 5789
5741 5739 5738 5737 5736 5736 5738 5738 5740 5741 5741 5742 5743 5743 5745 5745 5746 5747 5748 5750 5751 5753 5755 5757 5759 5761 5764 5766 5768 5770 5771 5772 5773 5773 5774 5775 5776 5776 5778 5779 5780 5781 5782 5783
5739 5738 5737 5735 5735 5735 5736 5737 5738 5739 5739 5740 5740 5744 5743 5743 5743 5744 5745 5745 5746 5748 5750 5752 5754 5756 5758 5760 5762 5763 5765 5766 5767 5768 5769 5769 5770 5771 5772 5773 5774 5775 5775 5775
5738 5737 5735 5735 5734 5734 5734 5735 5736 5738 5738 5738 5738 5742 5739 5739 5739 5739 5740 5741 5742 5743 5745 5747 5748 5750 5752 5754 5755 5757 5758 5759 5760 5762 5762 5763 5764 5765 5766 5766 5767 5767 5768 5768
5737 5736 5735 5734 5735 5734 5733 5733 5734 5735 5736 5736 5736 5740 5736 5736 5736 5736 5737 5737 5738 5739 5740 5741 5743 5744 5746 5747 5749 5750 5752 5753 5754 5755 5756 5756 5757 5758 5758 5759 5759 5760 5760 5760
5736 5735 5734 5734 5733 5732 5732 5732 5732 5733 5733 5733 5734 5734 5734 5733 5733 5733 5733 5733 5734 5734 5735 5736 5737 5738 5739 5741 5742 5743 5744 5746 5746 5747 5748 5749 5750 5750 5751 5751 5751 5752 5752 5752
5735 5734 5733 5732 5732 5731 5731 5731 5731 5731 5731 5731 5731 5730 5730 5729 5729 5729 5729 5729 5729 5729 5730 5730 5731 5732 5733 5734 5735 5736 5737 5738 5739 5740 5741 5741 5742 5742 5743 5743 5743 5743 5743 5743
5734 5733 5732 5731 5730 5730 5730 5729 5729 5729 5728 5727 5727 5727 5726 5725 5725 5724 5724 5724 5723 5723 5724 5724 5725 5725 5726 5727 5728 5729 5730 5731 5732 5732 5733 5734 5734 5735 5735 5736 5736 5736 5735 5735
5733 5732 5731 5731 5730 5729 5729 5728 5727 5726 5725 5724 5723 5723 5722 5721 5720 5720 5719 5718 5718 5718 5718 5718 5718 5719 5719 5720 5721 5722 5723 5724 5724 5725 5726 5727 5727 5727 5728 5728 5728 5728 5728 5727
5733 5732 5731 5730 5730 5729 5730 5726 5725 5724 5722 5721 5719 5718 5717 5716 5715 5715 5714 5714 5713 5713 5713 5713 5713 5713 5713 5714 5714 5715 5716 5717 5718 5718 5719 5719 5720 5720 5720 5721 5721 5720 5720 5719
5732 5732 5731 5730 5728 5728 5727 5725 5723 5721 5720 5718 5715 5714 5712 5711 5710 5710 5709 5709 5708 5708 5708 5708 5708 5708 5708 5708 5709 5709 5710 5711 5711 5712 5712 5713 5713 5713 5714 5714 5714 5713 5713 5712
5732 5731 5731 5729 5728 5727 5727 5724 5721 5720 5717 5714 5712 5710 5708 5707 5707 5706 5705 5704 5704 5704 5703 5703 5703 5703 5703 5703 5704 5704 5705 5705 5706 5706 5706 5707 5707 5707 5707 5707 5707 5707 5706 5705
5731 5731 5730 5729 5727 5726 5725 5722 5720 5718 5716 5711 5708 5706 5705 5704 5703 5703 5701 5700 5700 5699 5699 5699 5699 5698 5699 5699 5699 5699 5699 5700 5700 5700 5701 5701 5701 5701 5701 5701 5700 5700 5700 5699
5730 5730 5729 5728 5727 5727 5723 5720 5718 5716 5712 5709 5706 5704 5702 5701 5700 5698 5697 5696 5696 5695 5695 5695 5694 5694 5694 5694 5694 5694 5694 5694 5695 5695 5695 5695 5695 5695 5695 5695 5695 5694 5694 5693
5730 5731 5729 5729 5729 5725 5722 5720 5717 5714 5711 5707 5705 5702 5701 5699 5697 5696 5695 5693 5693 5692 5691 5691 5690 5690 5690 5690 5690 5690 5690 5690 5690 5690 5690 5690 5690 5690 5690 5690 5690 5689 5689 5689
5730 5730 5729 5728 5727 5724 5722 5719 5716 5713 5710 5707 5704 5702 5700 5698 5695 5694 5692 5691 5690 5689 5688 5687 5687 5686 5686 5686 5686 5685 5685 5685 5685 5685 5685 5685 5685 5685 5685 5685 5685 5685 5685 5684
5731 5730 5729 5728 5727 5724 5722 5719 5716 5713 5709 5706 5704 5701 5699 5697 5694 5692 5690 5689 5688 5686 5685 5685 5684 5683 5683 5682 5682 5682 5681 5681 5681 5681 5681 5680 5681 5681 5681 5681 5681 5681 5681 5681
5730 5731 5730 5729 5727 5725 5723 5719 5716 5713 5709 5706 5703 5701 5698 5696 5694 5691 5689 5687 5686 5685 5683 5682 5681 5680 5680 5679 5679 5678 5678 5677 5677 5677 5677 5676 5676 5677 5677 5677 5678 5678 5678 5678